www.pogodaiklimat.ru

Погода и климат >> Архив погоды >> Индонезия >> Бима


ПОГОДА в Биме

  • Прогноз погоды в Биме
  • Монитор погоды в Биме

АРХИВ ПОГОДЫ в Биме

Время (UTC), дата Ветер
(напр.,м/с)
 
Видим.   Явления Облачность Т
(С)
Тd
(С)
f
(%)
Тe
(С)
Тes
(С)
Комфортность P
(гПа)
Po
(гПа)
Тmin
(С)
Tmax
(С)
R
(мм)
R24
(мм)
S
(см)
12 12.06 Ю 4 6000 м осадки на расстоянии 9/6 450 м
[Cu med, cong As op Ci fib]
+27.6 +23.2 77 +37 +37 очень
душно
1012.3 1012.0 +32.6
15 12.06 ЮВ 4 5000 м в посл. час дождь 9/6 450 м
[Cu med, cong As op Ci fib]
+26.2 +24.3 89 +36 +36 очень
душно
1012.7 1012.4 0.0
18 12.06 ЮВ 2 5000 м осадки на расстоянии 9/6 450 м
[Cu med, cong As op Ci fib]
+26.4 +23.6 85 +36 +36 очень
душно
1011.6 1011.3 0.0
21 12.06 ЮВ 3 5000 м мгла 9/6 450 м
[Cu med, cong As op Ci fib]
+26.2 +23.4 85 +36 +36 очень
душно
1011.1 1010.8
00 13.06 ЮВ 4 8000 м осадки на расстоянии 8/5 450 м
[Cu med, cong Ac trans Ci fib]
+27.0 +24.0 84 +37 +38 очень
душно
1013.0 1012.6 +25.4 0.0
03 13.06 Ю 6 10 км 8/5 450 м
[Cu Sc As trans Ci fib]
+29.4 +23.9 72 +40 +42 очень
душно
1012.9 1012.6
06 13.06 Ю 4 6000 м осадки на расстоянии 9/6 450 м
[Cu Sc As op Ci fib]
+29.2 +23.7 72 +40 +42 очень
душно
1010.4 1010.1
09 13.06 Ю 3 7000 м осадки на расстоянии 8/5 450 м
[Cu Sc As op Ci fib]
+28.4 +23.7 76 +39 +39 очень
душно
1010.4 1010.1
12 13.06 Ю 4 6000 м осадки на расстоянии 9/6 450 м
[Cu med, cong As op Ci fib]
+26.8 +23.5 82 +36 +36 очень
душно
1012.4 1012.1 +31.0
15 13.06 ЮВ 3 6000 м 4/3 450 м
[Cu hum Ci fib]
+26.0 +23.5 86 +35 +35 очень
душно
1012.7 1012.3
18 13.06 штиль 0 6000 м 4/3 450 м
[Cu hum Ci fib]
+25.4 +23.5 89 +34 +34 очень
душно
1011.6 1011.3
21 13.06 штиль 0 6000 м 4/3 450 м
[Cu hum Ci fib]
+25.0 +23.1 89 +33 +33 очень
душно
1011.1 1010.8
00 14.06 Ю 4 7000 м 9/6 450 м
[Cu med, cong Ac As Ci fib]
+27.0 +23.7 82 +37 +38 очень
душно
1012.3 1012.0 +24.6
03 14.06 Ю 5 8000 м 6/4 450 м
[Cu med, cong Ac As Ci fib]
+30.2 +23.0 65 +40 +44 очень
душно
1012.1 1011.8
06 14.06 Ю 5 10 км 3/3 450 м
[Cu hum Ci fib]
+31.4 +21.9 57 +40 +44 очень
душно
1009.0 1008.6
09 14.06 Ю 6 8000 м 1/1 450 м
[Cu hum Ci fib]
+29.6 +22.4 65 +39 +39 очень
душно
1009.3 1009.0
12 14.06 ЮВ 3 6000 м 1/1 450 м
[Cu hum Ci fib]
+26.6 +23.3 82 +36 +36 очень
душно
1012.1 1011.8 +32.0
15 14.06 штиль 0 6000 м 1/1 450 м
[Cu hum Ci fib]
+25.6 +21.0 76 +32 +32 очень
душно
1012.6 1012.3
18 14.06 штиль 0 6000 м 1/1 450 м
[Cu hum Ci fib]
+25.0 +21.6 81 +32 +32 очень
душно
1012.1 1011.8
21 14.06 штиль 0 6000 м 1/1 450 м
[Cu hum Ci fib]
+22.8 +20.8 88 +30 +30 очень
душно
1012.4 1012.1
00 15.06 штиль 0 10 км 3/3 450 м
[Cu hum Ci fib]
+24.6 +22.1 86 +32 +35 очень
душно
1013.5 1013.1 +22.6
03 15.06 Ю 7 12 км 1/1 450 м
[Cu hum Ci fib]
+30.2 +21.2 59 +38 +42 очень
душно
1012.8 1012.5
06 15.06 Ю 7 12 км 1/1 450 м
[Cu hum Ci fib]
+31.4 +21.6 56 +40 +42 очень
душно
1010.4 1010.0
09 15.06 Ю 7 12 км 1/1 450 м
[Cu hum Ci fib]
+29.4 +20.9 60 +37 +37 очень
душно
1010.2 1009.9
12 15.06 ЮВ 2 6000 м 1/1 450 м
[Cu hum Ci fib]
+25.8 +20.3 72 +32 +32 очень
душно
1011.9 1011.6 +32.4
15 15.06 штиль 0 6000 м 3/3 450 м
[Cu hum Ci fib]
+22.6 +19.1 81 +29 +29 очень
душно
1013.3 1013.0
18 15.06 штиль 0 6000 м 3/3 450 м
[Cu hum Ci fib]
+22.6 +20.0 85 +29 +29 очень
душно
1012.5 1012.2
21 15.06 штиль 0 6000 м 6/3 450 м
[Cu hum Ac trans Ci fib]
+21.6 +19.8 89 +27 +27 душно 1012.3 1011.9
00 16.06 штиль 0 8000 м 4/3 450 м
[Cu hum Ci fib]
+24.2 +21.4 84 +31 +34 очень
душно
1013.9 1013.6 +21.0
03 16.06 С 2 10 км 5/3 450 м
[Cu hum Ci fib]
+29.2 +21.6 64 +37 +47 очень
душно
1013.6 1013.3
06 16.06 Ю 7 10 км 8/4 450 м
[Cu hum As trans Ci fib]
+31.4 +21.0 54 +39 +40 очень
душно
1011.2 1010.8
09 16.06 ЮВ 6 8000 м 5/3 450 м
[Cu hum Ci fib]
+29.4 +20.3 58 +36 +36 очень
душно
1010.9 1010.6
12 16.06 ЮВ 4 6000 м 1/1 450 м
[Cu hum Ci fib]
+25.2 +22.1 83 +33 +33 очень
душно
1013.4 1013.0 +32.6
15 16.06 Ю 4 6000 м 1/1 450 м
[Cu hum Ci fib]
+23.8 +21.8 89 +31 +31 очень
душно
1013.9 1013.6
18 16.06 штиль 0 6000 м 6/4 450 м
[Cu med, cong As trans Ci fib]
+22.0 +20.6 92 +28 +28 душно 1013.5 1013.2
21 16.06 штиль 0 6000 м 1/1 450 м
[Cu hum Ci fib]
+21.4 +20.8 96 +27 +27 душно 1013.5 1013.2
00 17.06 штиль 0 10 км 3/3 450 м
[Cu hum Ci fib]
+23.8 +20.9 84 +30 +33 очень
душно
1014.5 1014.2 +20.6
03 17.06 ЮВ 6 12 км 3/3 450 м
[Cu hum Ci fib]
+30.0 +21.6 61 +38 +42 очень
душно
1013.6 1013.3
06 17.06 Ю 6 12 км 3/3 450 м
[Cu hum Ci fib]
+31.2 +20.1 52 +38 +41 очень
душно
1011.3 1011.0
09 17.06 Ю 5 12 км 1/1 450 м
[Cu hum Ci fib]
+29.2 +19.7 57 +35 +36 очень
душно
1011.0 1010.7
12 17.06 штиль 0 6000 м 4/3 450 м
[Cu hum Ci fib]
+25.4 +21.7 80 +33 +33 очень
душно
1013.3 1013.0 +31.6
15 17.06 штиль 0 6000 м 3/3 450 м
[Cu hum Ci fib]
+23.0 +21.0 89 +31 +31 очень
душно
1013.8 1013.5
18 17.06 штиль 0 6000 м 3/3 450 м
[Cu hum Ci fib]
+22.4 +21.0 92 +29 +29 очень
душно
1012.9 1012.6
21 17.06 штиль 0 6000 м 3/3 450 м
[Cu hum Ci fib]
+21.0 +19.8 93 +26 +26 душно 1012.9 1012.6
00 18.06 штиль 0 8000 м 3/3 450 м
[Cu hum Ci fib]
+22.2 +21.1 93 +29 +32 очень
душно
1014.3 1014.0 +20.4
03 18.06 З 3 12 км 3/3 450 м
[Cu hum Ci fib]
+29.8 +22.0 63 +38 +48 очень
душно
1013.1 1012.7
06 18.06 Ю 5 12 км 3/3 450 м
[Cu hum Ci fib]
+31.2 +21.4 56 +39 +43 очень
душно
1010.1 1009.8
09 18.06 Ю 5 8000 м 4/4 450 м
[Cu hum Ci fib]
+28.4 +22.0 68 +37 +37 очень
душно
1010.1 1009.8
12 18.06 ЮВ 3 6000 м 3/3 450 м
[Cu hum Ci fib]
+25.6 +21.3 77 +32 +32 очень
душно
1012.1 1011.8 +32.2
15 18.06 штиль 0 6000 м 3/3 450 м
[Cu hum Ci fib]
+24.2 +21.4 84 +31 +31 очень
душно
1012.8 1012.5
18 18.06 штиль 0 6000 м 3/3 450 м
[Cu hum Ci fib]
+22.0 +20.3 90 +28 +28 душно 1012.4 1012.1
21 18.06 штиль 0 6000 м 3/3 450 м
[Cu hum Ci fib]
+20.8 +19.6 93 +25 +25 комфорт 1012.4 1012.0
00 19.06 штиль 0 8000 м 3/3 450 м
[Cu hum Ci fib]
+22.2 +20.8 92 +29 +32 очень
душно
1013.4 1013.1 +20.4
03 19.06 СЗ 2 10 км 3/3 450 м
[Cu hum Ci fib]
+29.4 +21.2 61 +37 +47 очень
душно
1012.2 1011.9
06 19.06 Ю 6 10 км 3/3 450 м
[Cu hum Ci fib]
+32.0 +20.7 51 +39 +43 очень
душно
1009.9 1009.6
09 19.06 Ю 5 10 км 3/3 450 м
[Cu hum Ci fib]
+30.0 +18.3 50 +35 +35 очень
душно
1009.8 1009.5

 

Местоположение метеостанции Бима (Индонезия): широта -8.55 долгота 118.70 высота над уровнем моря 2 м.

В архиве по умолчанию представлена погода в Биме за последнюю неделю. Архивные данные за месяц целиком и за предыдущие месяцы, начиная с января 2011 года, Вы можете получить, выбрав интересующий диапазон дат из раскрывающегося списка и нажав кнопку "Ввод!".


*Определитесь, кто Вы:
робот инопланетянин человек

Внимание! Время в таблицах - всемирное. Для получения местного времени необходимо прибавить поправку, которая равна 8 ч.

Смотрите также архив погоды в соседних городах и на ближайших метеорологических станциях:

Погода в Сумбава-Бесаре (Индонезия) (142 км)
Погода в Рутенге (Индонезия) (193 км)
Погода в Аэропорту Умбу Механг Кунда (Индонезия) (218 км)
Погода в Матараме (Индонезия) (290 км)
Погода в Денпасаре (Индонезия) (390 км)
Погода в Маумере (Индонезия) (391 км)
Погода в Аэропорту Султана Хасануддин (Индонезия) (398 км)
Погода в Уджангпанданге (Индонезия) (398 км)
Погода в Сабу (Индонезия) (406 км)
Погода в Ларантуке (Индонезия) (471 км)

Пояснения к столбцам:

Ветер - указаны скорость ветра в м/с - средняя за 10 мин, порывы в срок и между сроками (в фигурных скобках) и направление, откуда дует ветер: С - северный, СВ - северо-восточный, В - восточный, ЮВ - юго-восточный, Ю - южный, ЮЗ - юго-западный, З - западный, СЗ - северо-западный.
Видимость - горизонтальная дальность видимости в метрах или километрах. При видимости от 1 до 10 км при отсутствии осадков обычно наблюдается дымка, при ухудшении видимости до 1 км и менее - туман. В сухую погоду видимость может ухудшаться дымом, пылью или мглою.
Явления - указаны атмосферные явления, наблюдавшиеся в срок или в последний час перед сроком; фигурными скобками обозначены явления, наблюдавшиеся между сроками (за 1-3 часа до срока); квадратными скобками обозначены град или гололедные отложения с указанием их диаметра в мм.
Облачность - указаны через наклонную черту общая и нижняя облачность в баллах и высота нижней границы облаков в метрах; квадратными скобками обозначены формы облаков: Ci - перистые, Cs - перисто-слоистые, Cc - перисто-кучевые, Ac - высококучевые, As - высокослоистые, Sc - слоисто-кучевые, Ns - слоисто-дождевые, Cu - кучевые, Cb - кучево-дождевые. Подробнее классификацию облаков см. в Атласе облаков (PDF).
T - Температура воздуха - температура, измеренная на высоте 2 м над землей.
Td - Температура точки росы - температура, при понижении до которой содержащийся в воздухе водяной пар достигнет насыщения.
f - Относительная влажность воздуха - влажноcть воздуха, измеренная на высоте 2 м над землей.
Te - Эффективная температура - температура, которую ощущает одетый по сезону человек в тени. Характеристика душности погоды. При расчете учитывается влияние влажности воздуха и скорости ветра на теплоощущения человека.
Tes - Эффективная температура на солнце - температура, которую ощущает человек, с поправкой на солнечный нагрев. Характеристика знойности погоды. Зависит от высоты солнца над горизонтом, облачности и скорости ветра. Ночью, в пасмурную погоду, а также при ветре 12 м/с и более поправка равна нулю.
P - Атмосферное давление - приведенное к уровню моря атмосферное давление.
Po - Атмосферное давление - измеренное на уровне метеостанции атмосферное давление.
Tmin - Минимальная температура - минимум температуры воздуха на высоте 2 м над землей.
Tmax - Максимальная температура - максимум температуры воздуха на высоте 2 м над землей.
R - Количество осадков - Количество выпавших осадков за период времени, мм. При наведении курсора мыши на число - период времени, за который выпало указанное количество осадков.
R24 - Количество осадков - Количество выпавших осадков за 24 часа, мм.
S - Снежный покров - Высота снежного покрова, см. При наведении курсора мыши на число - состояние снежного покрова и степень покрытия местности в баллах.